Location: Newark
(45.4422°N, 16.2769°E)
Time: 06:00:17
(UTC+00:00)

Explorer 7 - Pass Details

Date: 27 January 2021
Orbit: 484 x 677 km, 50.3° (Epoch: 05 March)

Event Time Altitude Azimuth Distance (km) Brightness Sun altitude
Exits shadow 04:48:01 30° 310° (NW) 932 7.5 -16.4°
Maximum altitude 04:49:20 41° 355° (N) 763 7.4 -16.1°
Drops below altitude 10° 04:53:12 10° 67° (ENE) 1,804 10.3 -15.5°
Sets 04:55:36 0° 74° (ENE) 2,733 11.6 -15.1°
